SN5W LFLV-LFHY

Flight info

Callsign SN5W
Flight time 0h 32m
Altitude 4000
Route 461210N0032457E 461428N0032531E DCT 461735N0032317E 462241N0031916E DCT 462845N0031944E
Aircraft DA42/L-SBDGRY/S

Departure

Time 2026-04-23 15:26
Airport Vichy-Charmeil Airport (LFLV)

Arrival

Time 2026-04-23 15:58
Airport Moulins-Montbeugny Airfield (LFHY)
Time Latitude Longitude Altitude Speed Heading
2026-04-23 15:02 46.16490 3.39961 818 ft 0 kts 279°
2026-04-23 15:19 46.16491 3.39953 818 ft 4 kts 275°
2026-04-23 15:19 46.16466 3.39947 818 ft 5 kts 143°
2026-04-23 15:20 46.16455 3.39963 818 ft 3 kts 139°
2026-04-23 15:20 46.16434 3.39989 818 ft 4 kts 140°
2026-04-23 15:20 46.16409 3.40011 818 ft 7 kts 140°
2026-04-23 15:20 46.16395 3.40032 818 ft 0 kts 131°
2026-04-23 15:22 46.16390 3.40045 818 ft 5 kts 114°
2026-04-23 15:22 46.16382 3.40111 818 ft 6 kts 100°
2026-04-23 15:23 46.16376 3.40169 818 ft 7 kts 94°
2026-04-23 15:23 46.16400 3.40245 817 ft 4 kts 28°
2026-04-23 15:23 46.16404 3.40247 817 ft 0 kts
2026-04-23 15:24 46.16436 3.40254 817 ft 21 kts
2026-04-23 15:25 46.16728 3.40309 815 ft 62 kts
2026-04-23 15:25 46.17204 3.40394 928 ft 76 kts 14°
2026-04-23 15:25 46.17771 3.40516 1082 ft 88 kts 15°
2026-04-23 15:25 46.18415 3.40661 1297 ft 97 kts 14°
2026-04-23 15:26 46.19083 3.40792 1478 ft 95 kts 16°
2026-04-23 15:26 46.19731 3.40866 1638 ft 97 kts 11°
2026-04-23 15:26 46.20422 3.40895 1731 ft 100 kts 12°
2026-04-23 15:26 46.21145 3.41015 1786 ft 109 kts 17°
2026-04-23 15:27 46.21869 3.41283 1875 ft 103 kts 27°
2026-04-23 15:27 46.22540 3.41585 2000 ft 105 kts 22°
2026-04-23 15:27 46.23199 3.41826 2192 ft 102 kts 20°
2026-04-23 15:27 46.23975 3.41766 2220 ft 124 kts 348°
2026-04-23 15:28 46.24795 3.41298 2253 ft 126 kts 343°
2026-04-23 15:28 46.25568 3.40807 2436 ft 119 kts 343°
2026-04-23 15:28 46.26328 3.40317 2576 ft 123 kts 343°
2026-04-23 15:28 46.27121 3.39813 2679 ft 123 kts 343°
2026-04-23 15:29 46.27895 3.39306 2818 ft 126 kts 344°
2026-04-23 15:29 46.28696 3.38784 2920 ft 123 kts 341°
2026-04-23 15:29 46.29452 3.38285 3053 ft 118 kts 341°
2026-04-23 15:29 46.30198 3.37738 3167 ft 121 kts 338°
2026-04-23 15:30 46.30949 3.37172 3280 ft 120 kts 338°
2026-04-23 15:30 46.31669 3.36613 3422 ft 116 kts 337°
2026-04-23 15:30 46.32397 3.36048 3506 ft 125 kts 338°
2026-04-23 15:30 46.33186 3.35455 3496 ft 131 kts 338°
2026-04-23 15:31 46.34016 3.34836 3488 ft 136 kts 339°
2026-04-23 15:31 46.34863 3.34205 3497 ft 139 kts 339°
2026-04-23 15:31 46.35732 3.33556 3499 ft 142 kts 339°
2026-04-23 15:31 46.36612 3.32921 3484 ft 142 kts 340°
2026-04-23 15:32 46.37495 3.32285 3480 ft 141 kts 339°
2026-04-23 15:32 46.38362 3.31679 3489 ft 137 kts 344°
2026-04-23 15:32 46.39276 3.31504 3496 ft 132 kts
2026-04-23 15:32 46.40190 3.31502 3502 ft 132 kts
2026-04-23 15:33 46.41110 3.31502 3498 ft 133 kts
2026-04-23 15:33 46.42022 3.31496 3503 ft 131 kts
2026-04-23 15:33 46.42930 3.31507 3499 ft 131 kts
2026-04-23 15:33 46.43848 3.31510 3490 ft 131 kts
2026-04-23 15:34 46.44762 3.31506 3502 ft 131 kts
2026-04-23 15:34 46.45682 3.31498 3500 ft 132 kts
2026-04-23 15:34 46.46599 3.31494 3501 ft 132 kts
2026-04-23 15:34 46.47495 3.31605 3496 ft 124 kts 27°
2026-04-23 15:35 46.48164 3.32325 3510 ft 119 kts 47°
2026-04-23 15:35 46.48755 3.33141 3515 ft 117 kts 49°
2026-04-23 15:35 46.49342 3.33971 3510 ft 118 kts 49°
2026-04-23 15:35 46.49931 3.34808 3486 ft 118 kts 50°
2026-04-23 15:36 46.50453 3.35685 3345 ft 115 kts 58°
2026-04-23 15:36 46.50883 3.36655 3178 ft 113 kts 63°
2026-04-23 15:36 46.51257 3.37643 3016 ft 112 kts 64°
2026-04-23 15:36 46.51677 3.38592 2827 ft 111 kts 59°
2026-04-23 15:37 46.52102 3.39514 2681 ft 111 kts 60°
2026-04-23 15:37 46.52583 3.40408 2492 ft 111 kts 57°
2026-04-23 15:37 46.52895 3.40975 2437 ft 101 kts 57°
2026-04-23 15:37 46.53409 3.41986 2355 ft 89 kts 60°
2026-04-23 15:38 46.53738 3.42719 2344 ft 85 kts 62°
2026-04-23 15:38 46.54048 3.43455 2376 ft 86 kts 69°
2026-04-23 15:38 46.54326 3.44204 2405 ft 83 kts 67°
2026-04-23 15:38 46.54594 3.44959 2417 ft 84 kts 74°
2026-04-23 15:39 46.54595 3.45792 2431 ft 84 kts 97°
2026-04-23 15:39 46.54616 3.46630 2466 ft 90 kts 58°
2026-04-23 15:39 46.55230 3.46700 2451 ft 112 kts 324°
2026-04-23 15:39 46.55413 3.45643 2406 ft 116 kts 259°
2026-04-23 15:40 46.55275 3.44509 2420 ft 115 kts 261°
2026-04-23 15:40 46.55166 3.43369 2458 ft 114 kts 260°
2026-04-23 15:40 46.55086 3.42230 2480 ft 114 kts 257°
2026-04-23 15:40 46.54942 3.41100 2576 ft 115 kts 255°
2026-04-23 15:41 46.54787 3.39918 2574 ft 123 kts 257°
2026-04-23 15:41 46.54636 3.38707 2519 ft 123 kts 258°
2026-04-23 15:41 46.54182 3.37771 2365 ft 111 kts 187°
2026-04-23 15:41 46.53644 3.38199 2252 ft 90 kts 101°
2026-04-23 15:42 46.53789 3.39075 2115 ft 90 kts 75°
2026-04-23 15:42 46.53959 3.39925 2026 ft 86 kts 77°
2026-04-23 15:42 46.54069 3.40769 1969 ft 83 kts 79°
2026-04-23 15:42 46.54205 3.41532 1913 ft 78 kts 77°
2026-04-23 15:43 46.54353 3.42255 1909 ft 73 kts 75°
2026-04-23 15:43 46.54506 3.42971 1921 ft 76 kts 75°
2026-04-23 15:43 46.54660 3.43705 1894 ft 72 kts 76°
2026-04-23 15:43 46.54800 3.44396 1896 ft 72 kts 75°
2026-04-23 15:44 46.54864 3.45106 1868 ft 75 kts 107°
2026-04-23 15:44 46.54403 3.45534 1785 ft 91 kts 168°
2026-04-23 15:44 46.53821 3.45173 1658 ft 99 kts 238°
2026-04-23 15:44 46.53633 3.44221 1242 ft 99 kts 262°
2026-04-23 15:45 46.53538 3.43232 1120 ft 102 kts 263°
2026-04-23 15:45 46.53441 3.42256 1161 ft 95 kts 265°
2026-04-23 15:45 46.53349 3.41348 1238 ft 85 kts 264°
2026-04-23 15:45 46.53264 3.40532 1299 ft 81 kts 261°
2026-04-23 15:46 46.53204 3.39573 1327 ft 109 kts 264°
2026-04-23 15:46 46.53190 3.38402 1407 ft 121 kts 286°
2026-04-23 15:46 46.53617 3.37421 1451 ft 114 kts 330°
2026-04-23 15:46 46.54291 3.37033 1655 ft 98 kts 353°
2026-04-23 15:47 46.54927 3.36755 1853 ft 93 kts 352°
2026-04-23 15:47 46.55568 3.36686 1897 ft 94 kts 25°
2026-04-23 15:47 46.56037 3.37260 1898 ft 88 kts 68°
2026-04-23 15:47 46.56160 3.38148 1917 ft 92 kts 83°
2026-04-23 15:48 46.56256 3.39113 1898 ft 101 kts 83°
2026-04-23 15:48 46.56360 3.40129 1893 ft 102 kts 84°
2026-04-23 15:48 46.56472 3.41132 1894 ft 99 kts 83°
2026-04-23 15:48 46.56572 3.42125 1896 ft 99 kts 82°
2026-04-23 15:49 46.56651 3.43105 1907 ft 96 kts 84°
2026-04-23 15:49 46.56735 3.44074 1908 ft 99 kts 83°
2026-04-23 15:49 46.56827 3.45078 1897 ft 100 kts 82°
2026-04-23 15:49 46.56907 3.46067 1898 ft 97 kts 83°
2026-04-23 15:50 46.56835 3.46986 1895 ft 90 kts 116°
2026-04-23 15:50 46.56327 3.47492 1891 ft 92 kts 160°
2026-04-23 15:50 46.55681 3.47637 1726 ft 97 kts 165°
2026-04-23 15:50 46.54997 3.47793 1555 ft 102 kts 165°
2026-04-23 15:51 46.54278 3.47907 1437 ft 106 kts 180°
2026-04-23 15:51 46.53812 3.47272 1379 ft 95 kts 262°
2026-04-23 15:51 46.53803 3.46316 1276 ft 94 kts 274°
2026-04-23 15:51 46.53734 3.45358 1238 ft 95 kts 264°
2026-04-23 15:52 46.53679 3.44752 1199 ft 90 kts 264°
2026-04-23 15:52 46.53596 3.43840 1062 ft 92 kts 266°
2026-04-23 15:52 46.53512 3.42931 909 ft 83 kts 266°
2026-04-23 15:52 46.53441 3.42169 914 ft 82 kts 260°
2026-04-23 15:53 46.53353 3.41265 1025 ft 96 kts 263°
2026-04-23 15:53 46.53264 3.40252 1144 ft 108 kts 270°
2026-04-23 15:53 46.53603 3.39341 1277 ft 104 kts 341°
2026-04-23 15:53 46.54266 3.38936 1426 ft 103 kts 350°
2026-04-23 15:54 46.54930 3.38600 1631 ft 100 kts 348°
2026-04-23 15:54 46.55566 3.38487 1760 ft 91 kts 38°
2026-04-23 15:54 46.55769 3.39326 1883 ft 96 kts 89°
2026-04-23 15:54 46.55729 3.40309 2044 ft 103 kts 96°
2026-04-23 15:55 46.55642 3.41360 2049 ft 104 kts 97°
2026-04-23 15:55 46.55559 3.42399 2029 ft 105 kts 97°
2026-04-23 15:55 46.55468 3.43426 1983 ft 104 kts 96°
2026-04-23 15:55 46.55385 3.44451 1928 ft 100 kts 96°
2026-04-23 15:56 46.55284 3.45427 1904 ft 94 kts 97°
2026-04-23 15:56 46.55199 3.46340 1848 ft 88 kts 94°
2026-04-23 15:56 46.55057 3.47190 1802 ft 93 kts 128°
2026-04-23 15:56 46.54363 3.47346 1616 ft 103 kts 189°
2026-04-23 15:57 46.53889 3.46639 1437 ft 99 kts 250°
2026-04-23 15:57 46.53770 3.45692 1292 ft 94 kts 266°
2026-04-23 15:57 46.53685 3.44785 1165 ft 89 kts 267°
2026-04-23 15:57 46.53606 3.43923 1037 ft 81 kts 264°
2026-04-23 15:58 46.53529 3.43132 918 ft 78 kts 264°
2026-04-23 15:58 46.53471 3.42533 906 ft 31 kts 252°
2026-04-23 15:58 46.53458 3.42392 906 ft 11 kts 268°
2026-04-23 15:58 46.53449 3.42277 905 ft 12 kts 260°
2026-04-23 15:59 46.53451 3.42171 903 ft 7 kts 312°
2026-04-23 15:59 46.53480 3.42153 902 ft 1 kts 349°
2026-04-23 15:59 46.53481 3.42153 902 ft 1 kts 353°
2026-04-23 15:59 46.53516 3.42146 902 ft 7 kts 353°
2026-04-23 16:00 46.53566 3.42135 903 ft 8 kts 351°
2026-04-23 16:00 46.53615 3.42127 903 ft 6 kts 356°
2026-04-23 16:00 46.53635 3.42144 903 ft 5 kts 62°
2026-04-23 16:00 46.53643 3.42175 904 ft 2 kts 23°
2026-04-23 16:01 46.53649 3.42175 904 ft 0 kts 353°